Sacramento, CA

8:34 PM PDT on May 28, 2017 (GMT -0700)
Sacramento Executive

Weather History for KSAC - August, 2014

Change the Weather History Date:

Saturday, August 9, 2014

  Actual Average Record
Temperature  
Mean Temperature 74 °F -  
Max Temperature 87 °F 92 °F 109 °F (1990)
Min Temperature 61 °F 58 °F 50 °F (1950)
Degree Days  
Heating Degree Days 0    
Cooling Degree Days 9    
Growing Degree Days 23 (Base 50)    
Moisture  
Dew Point 54 °F    
Average Humidity 54    
Maximum Humidity 78    
Minimum Humidity 30    
Precipitation  
Precipitation 0.00 in 0.00 in 0.00 in (2017)
Month to date precipitation T 0.01  
Year to date precipitation 7.90 11.91  
Since 1 July precipitation 0.01  
Sea Level Pressure  
Sea Level Pressure 29.86 in    
Wind  
Wind Speed 7 mph (SSW)    
Max Wind Speed 14 mph    
Max Gust Speed 22 mph    
Visibility 10 miles    
Events      
T = Trace of Precipitation, MM = Missing Value Source: NWS Daily Summary

Daily Weather History Graph

Daily Weather History Graph

Search for Another Location

Airport or City:

Trip Planner

Search our weather history database for the weather conditions in past years. The results will help you decide how hot, cold, wet, or windy it might be!

Date:

Astronomy

Aug. 09, 2014 Rise Set
Actual Time 6:14 AM PDT 8:07 PM PDT
Civil Twilight 5:46 AM PDT 8:35 PM PDT
Nautical Twilight 5:11 AM PDT 9:10 PM PDT
Astronomical Twilight 4:33 AM PDT 9:48 PM PDT
Moon 7:13 PM PDT (8/9) 5:01 AM PDT (8/9)
Length of Visible Light 14h 49m
Length of Day
13h 52m
Waxing Gibbous, 99% of the Moon is Illuminated
Aug 9
Waxing Gibbous
Aug 10
Full
Aug 17
Last Quarter
Aug 25
New
Sep 2
First Quarter

Hourly Weather History & Observations

Time (PDT) Temp. Heat Index Dew Point Humidity Pressure Visibility Wind Dir Wind Speed Gust Speed Precip Events Conditions
12:53 AM 66.9 °F - 54.0 °F 63% 29.81 in 10.0 mi SSE 5.8 mph - N/A   Clear
1:53 AM 64.9 °F - 54.0 °F 68% 29.82 in 10.0 mi SSE 4.6 mph - N/A   Clear
2:53 AM 64.9 °F - 53.1 °F 65% 29.83 in 10.0 mi SSE 4.6 mph - N/A   Clear
3:53 AM 64.0 °F - 54.0 °F 70% 29.83 in 10.0 mi South 5.8 mph - N/A   Clear
4:53 AM 63.0 °F - 53.1 °F 70% 29.84 in 10.0 mi South 5.8 mph - N/A   Clear
5:53 AM 62.1 °F - 54.0 °F 75% 29.86 in 10.0 mi South 6.9 mph - N/A   Clear
6:53 AM 61.0 °F - 54.0 °F 78% 29.87 in 10.0 mi South 6.9 mph - N/A   Clear
7:53 AM 63.0 °F - 53.1 °F 70% 29.89 in 10.0 mi SSW 10.4 mph - N/A   Clear
8:53 AM 66.0 °F - 54.0 °F 65% 29.91 in 10.0 mi SSW 10.4 mph - N/A   Clear
10:53 AM 73.9 °F - 54.0 °F 50% 29.92 in 10.0 mi SW 11.5 mph - N/A   Clear
11:53 AM 77.0 °F - 55.0 °F 47% 29.91 in 10.0 mi WSW 9.2 mph - N/A   Clear
12:53 PM 79.0 °F - 57.0 °F 47% 29.90 in 10.0 mi South 4.6 mph - N/A   Clear
1:53 PM 84.0 °F 83.0 °F 55.9 °F 38% 29.88 in 10.0 mi SW 10.4 mph - N/A   Clear
2:53 PM 86.0 °F 84.5 °F 55.0 °F 35% 29.87 in 10.0 mi SW 12.7 mph 21.9 mph N/A   Clear
3:53 PM 86.0 °F - 52.0 °F 31% 29.85 in 10.0 mi SW 9.2 mph - N/A   Clear
4:53 PM 84.0 °F 82.6 °F 54.0 °F 35% 29.83 in 10.0 mi South 9.2 mph - N/A   Clear
5:53 PM 82.0 °F 81.6 °F 55.9 °F 41% 29.83 in 10.0 mi SSW 8.1 mph - N/A   Clear
6:53 PM 79.0 °F - 55.0 °F 44% 29.83 in 10.0 mi SSW 8.1 mph 18.4 mph N/A   Clear
7:53 PM 73.4 °F - 55.4 °F 53% 29.85 in 10.0 mi South 8.1 mph - N/A   Clear
8:53 PM 66.9 °F - 53.1 °F 61% 29.87 in 10.0 mi SSW 13.8 mph 24.2 mph N/A   Clear
9:53 PM 62.1 °F - 54.0 °F 75% 29.89 in 10.0 mi SSW 11.5 mph 20.7 mph N/A   Clear
10:53 PM 60.1 °F - 54.0 °F 80% 29.90 in 10.0 mi South 8.1 mph - N/A   Clear
11:53 PM 60.1 °F - 54.0 °F 80% 29.90 in 10.0 mi SSW 8.1 mph 19.6 mph N/A   Clear